Regional Weather Roundup
Issued by NWS

Home | Current Version | Previous Version | Graphics & Text | Print | Product List | Glossary On
Versions: 1 2 3 4 5 6 7 8 9 10 11 12 13 14 15 16 17 18 19 20 21 22 23 24 25 26 27 28 29 30 31 32 33 34 35 36 37 38 39 40 41 42 43 44 45 46 47 48 49 50
000
ASUS43 KDMX 041008
RWRIA

WEATHER ROUNDUP FOR IOWA
NATIONAL WEATHER SERVICE DES MOINES IA
500 AM CDT WED MAY 04 2016

NOTE: "FAIR" INDICATES FEW OR NO CLOUDS BELOW 12,000 FEET WITH NO
SIGNIFICANT WEATHER AND/OR OBSTRUCTIONS TO VISIBILITY.

* - THESE STATIONS ARE NOT NWS STATIONS...THUS NOT UNDER NWS
QUALITY CONTROL.  THEY ALSO DO NOT REPORT WEATHER SUCH
AS PRECIPITATION OR FOG.

IAZ001>003-012>014-020>022-031>034-043>046-041100-
   NORTHWEST IOWA

CITY           SKY/WX    TMP DP  RH WIND       PRES   REMARKS
CARROLL *      CLEAR     46  36  66 N13       29.89R
CHEROKEE *     CLEAR     43  34  70 N3        29.94S
DENISON *      CLEAR     48  34  57 N12       29.90R
LE MARS *      CLEAR     46  34  61 N6        29.97R
ORANGE CITY *  CLEAR     45  34  65 N12G17    29.96R
SHELDON *      CLEAR     41  34  75 N10       29.95R
SIOUX CITY     CLEAR     44  34  67 NW9       29.96R
SPENCER        CLEAR     46  33  60 N14       29.94R
STORM LAKE *   CLEAR     46  34  61 N16       29.93R
$$

IAZ055>058-069>071-079>083-090>094-041100-
   SOUTHWEST IOWA

CITY           SKY/WX    TMP DP  RH WIND       PRES   REMARKS
ATLANTIC *     CLEAR     48  36  61 N12       29.89R
AUDUBON *      CLEAR     46  36  66 NW10      29.90R
CLARINDA *       N/A    N/A N/A N/A MISG        N/A
COUNCIL BLFS * CLEAR     50  37  62 NW13      29.92S
CRESTON *      CLEAR     48  36  61 N15G22    29.86R
HARLAN  *      CLEAR     48  36  61 N12       29.94R
LAMONI         CLEAR     51  37  58 N12       29.81R
RED OAK *      CLEAR     50  36  57 N7G15     29.90R
SHENANDOAH *   CLEAR     52  37  58 N12       29.90R
$$

IAZ047>049-059>061-072>074-084-041100-
   CENTRAL IOWA

CITY           SKY/WX    TMP DP  RH WIND       PRES   REMARKS
AMES           CLEAR     47  35  63 N12       29.84R
ANKENY *       CLEAR     50  36  57 N12       29.83R
BOONE *        CLEAR     46  36  66 N12       29.84R
CHARITON *     CLEAR     50  37  62 NW10      29.80R
DES MOINES     PTCLDY    53  34  48 N9        29.83R
GRINNELL*      CLEAR     48  43  81 N13       29.81R
KNOXVILLE *    CLEAR     52  37  58 N12       29.78R
MARSHALLTOWN   CLEAR     48  40  73 N14       29.81R
NEWTON *       CLEAR     50  41  71 N13       29.80R
PELLA *        CLEAR     50  39  66 N6        29.81R
PERRY *          N/A     48  36  61 NW9       29.86R
$$

IAZ004>006-015-016-023>025-035-036-041100-
   NORTH CENTRAL IOWA

CITY           SKY/WX    TMP DP  RH WIND       PRES   REMARKS
ALGONA *       CLEAR     46  36  66 N12       29.91R
CLARION *      CLEAR     45  34  65 N9        29.87R
ESTHERVILLE    CLEAR     43  34  70 N13       29.93R
FORT DODGE *   CLEAR     48  32  53 N8        29.88R
MASON CITY     CLEAR     42  34  73 N10       29.89R
FOREST CITY *  CLEAR     43  32  65 N9        29.89R
WEBSTER CITY * CLEAR     46  34  61 N13       29.85R
IOWA FALLS *     N/A     46  37  71 N9        29.86R
$$

IAZ007>011-017>019-026>030-037>042-050>054-066-041100-
   NORTHEAST IOWA

CITY           SKY/WX    TMP DP  RH WIND       PRES   REMARKS
CEDAR RAPIDS   CLEAR     48  46  93 N9        29.76R
CHARLES CITY * CLEAR     48  39  71 N15       29.85R
CLINTON *      LGT RAIN  44  44 100 N9        29.74R VSB 1/4
DECORAH *      CLEAR     46  39  76 N10       29.82R
DUBUQUE        CLEAR     45  44  97 N9        29.76R
MONTICELLO *   CLEAR     46  45  93 N8G16     29.76R
OELWEIN *      CLEAR     46  43  87 N15       29.81R
WATERLOO       CLEAR     47  40  76 N14       29.81R
$$

IAZ064-065-067-068-078-041100-
   EAST CENTRAL IOWA

CITY           SKY/WX    TMP DP  RH WIND       PRES   REMARKS
DAVENPORT      FOG       44  43  96 N7        29.74R VSB 1/4
IOWA CITY      CLEAR     49  46  90 N8        29.77R
MT. PLEASANT * CLEAR     50  46  87 N8        29.73R
MUSCATINE *    CLEAR     46  46 100 NW7       29.74R
QUAD CITIES    PTCLDY    48  44  86 NW6       29.72R FOG
$$

IAZ062-063-075>077-085>089-095>099-041100-
   SOUTHEAST IOWA

CITY           SKY/WX    TMP DP  RH WIND       PRES   REMARKS
BURLINGTON     CLEAR     48  47  96 N5        29.70R
FAIRFIELD *    CLEAR     50  43  76 N12       29.74R
FORT MADISON * CLEAR     50  45  81 NW5       29.72R
KEOKUK *       CLEAR     55  45  67 NW8       29.70R
OSKALOOSA *      N/A     48  41  76 N10       29.77R
OTTUMWA        CLEAR     47  41  80 N13       29.76R
WASHINGTON *   CLEAR     48  48 100 N10       29.76R
$$

ABBREVIATIONS USED IN REMARKS
   TC - TEMPERATURES IN CELSIUS
  WCI - WIND CHILL INDEX
   HX - HEAT INDEX
  VSB - VISIBILITY
$$




USA.gov is the U.S. government's official web portal to all federal, state and local government web resources and services.